Location: Ostrava
(49.8330°N, 18.2830°E)
Time: 07:19:33
(UTC+02:00)

Iridium 39 - Visible Passes

Search period start: 25 June 2016 00:00
Search period end: 05 July 2016 00:00
Orbit: 767 x 773 km, 86.4° (Epoch: 24 June)

Date Brightness Start Highest point End Pass type
(mag) Time Alt. Az. Time Alt. Az. Time Alt. Az.
28 Jun 8.8 03:52:12 10° NNE 03:55:46 18° ENE 03:59:19 10° ESE visible
29 Jun 9.3 03:18:31 10° NE 03:19:31 10° ENE 03:20:31 10° ENE visible
01 Jul 8.6 03:45:17 10° NNE 03:49:17 22° ENE 03:53:16 10° ESE visible
02 Jul 8.9 03:10:47 10° NE 03:13:06 13° ENE 03:15:25 10° E visible
04 Jul 8.2 03:38:27 10° NNE 03:42:47 26° ENE 03:47:06 10° SE visible
